Simultaneous Nadir Overpasses (SNOs) Predictions

Prediction of SNOs between GOES-16 and METOP-B Satellite Orbit:

Table of predicted SNOs for the next 14.0 days since TLE Epoch: 6/11/2022
Index Date Time (GOES-16) GOES-16 Lat,Lon METOP-B Lat,Lon Distance(km) Time Diff (sec)
1 06/11/2022 14:20:15 0.04, -75.21 -0.58, -72.29 331.83 80
2 06/13/2022 02:36:37 -0.04, -75.20 -0.43, -76.90 193.86 80
3 06/14/2022 02:18:38 -0.04, -75.20 0.72, -71.91 375.38 80
4 06/15/2022 14:34:49 0.03, -75.22 0.32, -76.47 142.30 80
5 06/16/2022 14:16:50 0.03, -75.22 -0.78, -71.47 427.15 80
6 06/18/2022 02:35:51 -0.03, -75.22 -0.23, -76.07 97.75 80
7 06/19/2022 02:12:33 -0.03, -75.23 0.93, -71.09 472.23 80
8 06/20/2022 14:31:24 0.02, -75.26 0.11, -75.65 43.83 80
9 06/23/2022 02:29:46 -0.02, -75.29 -0.01, -75.26 3.92 80
